Flag Weather past 2 weeks in Stamford, Connecticut, U.S.A.

Now
51 °F

Passing clouds.


Feels Like: 48 °F
Forecast: 45 / 57 °F
Wind: 8 mph from West

Location: Westchester County Airport

Current Time: Oct 30, 2014 at 7:07:39 PM

Latest Report: Oct 30, 2014 at 5:56 PM


Visibility: 10 mi

Pressure: 29.98 "Hg

Humidity: 52%

Dew point: 34 °F

Location of StamfordLocation

Historic Weather in Stamford — Graph

°F

Stamford temperature yesterday

Maximum temperature yesterday: 69 °F (at 12:56 PM)
Minimum temperature yesterday: 50 °F (at 8:56 PM)
Average temperature yesterday: 58 °F

Past Weeks' High & Low Weather Summary

 TemperatureHumidityPressure
High72 °F (Oct 15, 5:56 PM)100% (Oct 16, 10:56 PM)30.12 "Hg (Oct 16, 10:56 PM)
Low36 °F (Oct 20, 3:56 AM)39% (Oct 19, 3:56 PM)26.00 "Hg (Oct 17, 4:20 AM)
Average55 °F73%29.81 "Hg
* Reported Oct 15 5:56 PM — Oct 30 5:56 PM, Stamford, Weather by CustomWeather, © 2014

Note: Actual official high and low records may vary slightly from our data, if they occured in-between our weather recording intervals... More about our weather records

Advertising

Stamford weather history for previous 24 hours

 ConditionsComfort  
Time TempWeatherWind HumidityBarometerVisibility
5:56 PM
Oct 30
51 °FPassing clouds.8 mph52%29.98 "Hg10 mi
4:56 PM54 °FScattered clouds.7 mph47%29.97 "Hg10 mi
3:56 PM56 °FPartly sunny.10 mph44%29.96 "Hg10 mi
2:56 PM56 °FPartly sunny.7 mph46%29.95 "Hg10 mi
1:56 PM54 °FScattered clouds.7 mph51%29.96 "Hg10 mi
12:56 PM55 °FPassing clouds.10 mph55%29.98 "Hg10 mi
11:56 AM54 °FScattered clouds.8 mph62%29.98 "Hg10 mi
10:56 AM51 °FScattered clouds.8 mph69%29.99 "Hg10 mi
9:56 AM50 °FOvercast.8 mph74%29.99 "Hg10 mi
8:56 AM49 °FScattered clouds.9 mph80%29.98 "Hg10 mi
7:56 AM43 °FPassing clouds.5 mph97%29.97 "Hg8 mi
6:56 AM42 °FPassing clouds.5 mph96%29.96 "Hg8 mi
5:56 AM42 °FClear.5 mph96%29.95 "Hg5 mi
4:56 AM42 °FClear.6 mph96%29.93 "Hg6 mi
3:56 AM43 °FLight fog.No wind97%29.93 "Hg5 mi
2:56 AM42 °FClear.6 mph96%29.93 "Hg6 mi
1:56 AM43 °FClear.6 mph97%29.93 "Hg7 mi
12:56 AM47 °FPassing clouds.No wind93%29.93 "Hg10 mi
11:56 PM
Oct 29
50 °FPassing clouds.3 mph89%29.93 "Hg10 mi
10:56 PM50 °FClear.6 mph93%29.93 "Hg10 mi
9:56 PM51 °FPassing clouds.7 mph89%29.92 "Hg10 mi
8:56 PM50 °FFog.7 mph93%29.90 "Hg10 mi
7:56 PM51 °FFog.3 mph89%29.91 "Hg10 mi
Weather by CustomWeather, © 2014

See weather overviewHow to use our weather pages